Lancaster, CA

12:49 PM PDT on April 30, 2017 (GMT -0700)
Gen Fox

Weather History for KWJF - April, 2013

Change the Weather History Date:

Friday, April 19, 2013

  Actual Average Record
Temperature  
Mean Temperature 58 °F 60 °F  
Max Temperature 82 °F 74 °F 94 °F (1950)
Min Temperature 34 °F 46 °F 29 °F (2007)
Degree Days  
Heating Degree Days 7    
Month to date heating degree days 98  
Since 1 July heating degree days 2676  
Cooling Degree Days 0    
Month to date cooling degree days 11  
Year to date cooling degree days 23  
Growing Degree Days 8 (Base 50)    
Moisture  
Dew Point 14 °F    
Average Humidity 21    
Maximum Humidity 35    
Minimum Humidity 7    
Precipitation  
Precipitation 0.00 in 0.01 in 0.08 in (2001)
Month to date precipitation 0.00 0.26  
Year to date precipitation 0.95 4.68  
Since 1 July precipitation 1.11  
Snow  
Snow 0.00 in - 0.00 in ()
Month to date snowfall 0.0  
Since 1 July snowfall 0.0  
Snow Depth 0.00 in    
Sea Level Pressure  
Sea Level Pressure 30.14 in    
Wind  
Wind Speed 9 mph (West)    
Max Wind Speed 29 mph    
Max Gust Speed 33 mph    
T = Trace of Precipitation, MM = Missing Value Source: NWS Daily Summary

Daily Weather History Graph

Daily Weather History Graph

Search for Another Location

Airport or City:

Trip Planner

Search our weather history database for the weather conditions in past years. The results will help you decide how hot, cold, wet, or windy it might be!

Date:

Astronomy

Apr. 19, 2013 Rise Set
Actual Time 6:15 AM PDT 7:28 PM PDT
Civil Twilight 5:49 AM PDT 7:54 PM PDT
Nautical Twilight 5:18 AM PDT 8:26 PM PDT
Astronomical Twilight 4:45 AM PDT 8:58 PM PDT
Moon 1:32 PM PDT (4/19) 2:18 AM PDT (4/19)
Length of Visible Light 14h 05m
Length of Day
13h 12m
Waxing Gibbous, 62% of the Moon is Illuminated
Apr 19
Waxing Gibbous
Apr 25
Full
May 2
Last Quarter
May 9
New
May 17
First Quarter

Hourly Weather History & Observations

Time (PDT) Temp. Windchill Dew Point Humidity Pressure Visibility Wind Dir Wind Speed Gust Speed Precip Events Conditions
12:56 AM 41.0 °F 38.0 °F 7.0 °F 25% 30.24 in - WNW 4.6 mph - N/A   Clear
1:56 AM 42.1 °F 37.7 °F 8.1 °F 25% 30.23 in - West 6.9 mph - N/A   Clear
2:56 AM 44.1 °F - 15.1 °F 31% 30.22 in - Calm Calm - N/A   Clear
3:56 AM 42.1 °F - 10.9 °F 28% 30.23 in - Calm Calm - N/A   Clear
4:56 AM 39.9 °F 35.8 °F 10.9 °F 31% 30.23 in - West 5.8 mph - N/A   Clear
5:56 AM 34.0 °F 28.0 °F 9.0 °F 35% 30.25 in - NW 6.9 mph - N/A   Clear
6:56 AM 37.9 °F - 12.0 °F 35% 30.25 in - Calm Calm - N/A   Clear
7:56 AM 46.0 °F - 12.9 °F 26% 30.26 in - Calm Calm - N/A   Clear
8:56 AM 55.0 °F - 15.1 °F 21% 30.26 in - Calm Calm - N/A   Clear
9:56 AM 63.0 °F - 15.1 °F 16% 30.25 in - East 3.5 mph - N/A   Clear
10:56 AM 68.0 °F - 12.0 °F 11% 30.23 in - Variable 3.5 mph - N/A   Clear
11:56 AM 73.0 °F - 5.0 °F 7% 30.19 in - Calm Calm - N/A   Clear
12:56 PM 73.9 °F - 5.0 °F 7% 30.17 in - SE 6.9 mph - N/A   Clear
1:56 PM 75.0 °F - 6.1 °F 7% 30.13 in - Calm Calm - N/A   Clear
2:56 PM 78.1 °F - 8.1 °F 7% 30.09 in - Calm Calm - N/A   Clear
3:56 PM 79.0 °F - 10.0 °F 7% 30.04 in - Calm Calm - N/A   Clear
4:56 PM 81.0 °F - 16.0 °F 9% 30.03 in - NW 18.4 mph 28.8 mph N/A   Clear
5:56 PM 77.0 °F - 14.0 °F 9% 30.03 in - West 25.3 mph - N/A   Clear
6:56 PM 71.1 °F - 19.0 °F 14% 30.04 in - West 25.3 mph 32.2 mph N/A   Clear
7:56 PM 66.9 °F - 18.0 °F 15% 30.02 in - West 20.7 mph - N/A   Clear
8:56 PM 66.0 °F - 21.9 °F 19% 30.01 in - West 24.2 mph 32.2 mph N/A   Clear
9:56 PM 66.0 °F - 21.9 °F 19% 30.02 in - WSW 24.2 mph 32.2 mph N/A   Clear
10:56 PM 63.0 °F - 25.0 °F 24% 30.01 in - West 19.6 mph - N/A   Clear
11:56 PM 63.0 °F - 26.1 °F 25% 30.01 in - SSW 11.5 mph - N/A   Clear